Change the Weather History Date:

Saturday, December 8, 2012

  Actual Average Record
Temperature  
Mean Temperature 34 °F 29 °F  
Max Temperature 41 °F 37 °F 56 °F (1984)
Min Temperature 26 °F 20 °F -8 °F (1976)
Degree Days  
Heating Degree Days 31 36  
Month to date heating degree days 166 279  
Since 1 July heating degree days 1362 1527  
Cooling Degree Days 0 0  
Month to date cooling degree days 0 0  
Year to date cooling degree days 1312 946  
Moisture  
Dew Point 30 °F    
Average Humidity 79    
Maximum Humidity 92    
Minimum Humidity 65    
Precipitation  
Precipitation T in 0.06 in 0.32 in (1987)
Month to date precipitation 0.02 0.43  
Sea Level Pressure  
Sea Level Pressure 29.98 in    
Wind  
Wind Speed 6 mph (ENE)    
Max Wind Speed 10 mph    
Max Gust Speed 15 mph    
Visibility 8 miles    
Events      
T = Trace of Precipitation, MM = Missing Value Source: NWS Daily Summary

Daily Weather History Graph

Daily Weather History Graph

Search for Another Location

Airport or City:

Trip Planner

Search our weather history database for the weather conditions in past years. The results will help you decide how hot, cold, wet, or windy it might be!

Date:

Astronomy

Dec. 08, 2012 Rise Set
Actual Time 7:27 AM CST 4:48 PM CST
Civil Twilight 6:56 AM CST 5:19 PM CST
Nautical Twilight 6:22 AM CST 5:53 PM CST
Astronomical Twilight 5:49 AM CST 6:26 PM CST
Moon 1:51 AM CST (12/8) 1:19 PM CST (12/8)
Length of Visible Light 10h 22m
Length of Day
9h 21m
Waning Crescent, 28% of the Moon is Illuminated
Dec 8
Waning Crescent
Dec 13
New
Dec 19
First Quarter
Dec 28
Full
Jan 4
Last Quarter

Hourly Weather History & Observations

Time (CST) Temp. Windchill Dew Point Humidity Pressure Visibility Wind Dir Wind Speed Gust Speed Precip Events Conditions
12:53 AM 34.0 °F 31.0 °F 30.9 °F 89% 29.95 in 6.0 mi North 3.5 mph - N/A   Clear
1:53 AM 33.1 °F 27.7 °F 30.9 °F 92% 29.96 in 6.0 mi NNW 5.8 mph - N/A   Clear
2:53 AM 30.9 °F 25.2 °F 28.9 °F 92% 29.98 in 5.0 mi NNW 5.8 mph - N/A   Clear
3:53 AM 30.9 °F 24.3 °F 28.9 °F 92% 29.98 in 5.0 mi North 6.9 mph - N/A   Clear
5:53 AM 28.0 °F 20.8 °F 25.0 °F 88% 30.01 in 7.0 mi North 6.9 mph - N/A   Clear
6:53 AM 27.0 °F 20.5 °F 24.1 °F 89% 30.02 in 7.0 mi North 5.8 mph - N/A   Clear
7:53 AM 27.0 °F 21.6 °F 24.1 °F 89% 30.01 in 5.0 mi NNE 4.6 mph - N/A   Clear
8:53 AM 30.0 °F 25.2 °F 26.1 °F 85% 30.03 in 7.0 mi NNE 4.6 mph - N/A   Clear
9:53 AM 34.0 °F 28.8 °F 28.0 °F 79% 30.03 in 10.0 mi ENE 5.8 mph - N/A   Clear
10:53 AM 34.0 °F 29.8 °F 28.9 °F 82% 30.04 in 10.0 mi SSE 4.6 mph - N/A   Clear
11:53 AM 37.9 °F 34.4 °F 30.9 °F 76% 30.01 in 10.0 mi SE 4.6 mph - N/A   Clear
12:53 PM 41.0 °F 38.0 °F 30.9 °F 67% 29.98 in 10.0 mi ENE 4.6 mph - N/A   Mostly Cloudy
1:02 PM 39.2 °F 33.6 °F 30.2 °F 70% 29.95 in 10.0 mi East 8.1 mph - N/A   Mostly Cloudy
1:28 PM 39.2 °F 35.9 °F 30.2 °F 70% 29.95 in 10.0 mi SE 4.6 mph - N/A   Mostly Cloudy
1:53 PM 37.9 °F 32.7 °F 30.9 °F 76% 29.98 in 9.0 mi ESE 6.9 mph - N/A   Overcast
2:53 PM 39.0 °F 34.8 °F 32.0 °F 76% 29.96 in 8.0 mi East 5.8 mph - N/A   Mostly Cloudy
3:53 PM 37.0 °F 32.4 °F 30.0 °F 76% 29.98 in 8.0 mi East 5.8 mph - N/A   Clear
4:53 PM 36.0 °F 30.3 °F 30.9 °F 82% 29.98 in 5.0 mi East 6.9 mph - N/A   Haze
5:53 PM 36.0 °F 31.1 °F 30.9 °F 82% 29.96 in 6.0 mi East 5.8 mph - N/A   Haze
7:53 PM 37.0 °F 33.3 °F 30.9 °F 79% 29.97 in 10.0 mi ESE 4.6 mph - N/A   Mostly Cloudy
8:53 PM 36.0 °F 31.1 °F 30.9 °F 82% 29.96 in 9.0 mi East 5.8 mph - N/A   Overcast
9:35 PM 35.6 °F 29.9 °F 32.0 °F 87% 29.92 in 8.0 mi ESE 6.9 mph - N/A   Overcast
9:53 PM 36.0 °F 30.3 °F 32.0 °F 86% 29.95 in 8.0 mi East 6.9 mph - N/A   Overcast
10:53 PM 36.0 °F 31.1 °F 33.1 °F 89% 29.94 in 6.0 mi East 5.8 mph - 0.00 in   Overcast
11:44 PM 35.6 °F 30.7 °F 33.8 °F 93% 29.92 in 6.0 mi ENE 5.8 mph - N/A   Overcast
11:53 PM 36.0 °F 31.1 °F 33.1 °F 89% 29.94 in 6.0 mi ENE 5.8 mph - N/A   Overcast